Location: Aalen
(48.8330°N, 10.1000°E)
Time: 21:51:45
(UTC+02:00)

Max Valier Satellite - Visible Passes

Search period start: 19 September 2021 00:00
Search period end: 29 September 2021 00:00
Orbit: 486 x 502 km, 97.2° (Epoch: 19 September)

Date Brightness Start Highest point End Pass type
(mag) Time Alt. Az. Time Alt. Az. Time Alt. Az.
19 Sep ? 21:25:50 52° S 21:26:40 84° WSW 21:30:23 10° NNW visible
20 Sep ? 21:04:17 41° ESE 21:05:12 54° ENE 21:08:49 10° N visible
20 Sep ? 22:38:51 13° W 22:39:11 13° W 22:41:01 10° WNW visible
21 Sep ? 20:42:44 26° ESE 20:43:47 31° ENE 20:47:05 10° N visible
21 Sep ? 22:17:17 22° W 22:17:29 22° W 22:20:25 10° NW visible
22 Sep ? 20:21:11 17° E 20:22:26 20° ENE 20:25:09 10° NNE visible
22 Sep ? 21:55:44 37° WSW 21:55:52 37° W 21:59:19 10° NNW visible
23 Sep ? 19:59:37 10° E 20:01:09 12° ENE 20:02:44 10° NE visible
23 Sep ? 21:34:10 67° WSW 21:34:18 67° WSW 21:37:59 10° NNW visible
24 Sep ? 21:12:37 66° E 21:12:48 68° ENE 21:16:28 10° N visible
24 Sep ? 22:47:10 11° W 22:47:10 11° W 22:47:51 10° WNW visible
25 Sep ? 20:51:03 37° E 20:51:21 38° ENE 20:54:47 10° N visible
25 Sep ? 22:25:36 18° W 22:25:36 18° W 22:27:46 10° NW visible
26 Sep ? 20:29:29 22° E 20:29:58 23° ENE 20:32:55 10° NNE visible
26 Sep ? 22:04:03 29° WNW 22:04:03 29° WNW 22:06:47 10° NNW visible
27 Sep ? 20:07:55 14° ENE 20:08:39 15° ENE 20:10:43 10° NNE visible
27 Sep ? 21:42:28 47° WNW 21:42:28 47° WNW 21:45:30 10° NNW visible
28 Sep ? 21:20:54 63° N 21:20:54 63° N 21:24:02 10° NNW visible
